This demonstration page uses our WeatherBlox Daily Observations layout. Learn more.

Left ArrowRight Arrow

39.08367, -84.50855

Hourly Observations for November 28, 2022

Temp ( °F °C ) Dew Point ( °F °C ) Humidity (%) Winds ( mph kmh ) Pressure ( in mb ) Visibility ( mi km ) Precip ( " mm )
12:03 am 00:03 Cloudy 45 7.2 41 5 86 86 W 6 9 29.82 1010 7 11 0.00 0.00
12:53 am 00:53 Cloudy with Haze 45 7.2 40 4.4 82 82 NW 6 9 29.82 1010 6 10 0.00 0.00
1:53 am 01:53 Mostly Cloudy with Mist and Fog 44 6.7 40 4.4 85 85 W 7 11 29.83 1010 6 10 0.00 0.00
2:53 am 02:53 Mostly Cloudy with Haze 44 6.7 39 3.9 82 82 W 7 11 29.86 1011 6 10 0.00 0.00
3:53 am 03:53 Cloudy with Haze 44 6.7 39 3.9 82 82 W 6 9 29.87 1012 6 10 0.00 0.00
4:53 am 04:53 Cloudy with Mist and Fog 44 6.7 40 4.4 85 85 W 6 9 29.88 1012 6 10 0.00 0.00
5:41 am 05:41 Cloudy with Mist and Fog 44 6.7 40 4.4 85 85 WSW 6 9 29.91 1013 6 10 0.00 0.00
5:53 am 05:53 Cloudy with Mist and Fog 44 6.7 40 4.4 85 85 SW 3 6 29.90 1013 6 10 0.00 0.00
6:11 am 06:11 Cloudy with Mist and Fog 44 6.7 40 4.4 85 85 WSW 5 7 29.91 1013 6 10 0.00 0.00
6:53 am 06:53 Cloudy 44 6.7 41 5 89 89 W 5 7 29.92 1013 7 11 0.00 0.00
7:53 am 07:53 Cloudy 44 6.7 41 5 89 89 W 7 11 29.95 1014 7 11 0.00 0.00
8:53 am 08:53 Cloudy with Mist and Fog 44 6.7 41 5 89 89 SW 5 7 29.97 1015 5 8 0.00 0.00
9:05 am 09:05 Cloudy with Mist and Fog 44 6.7 41 5 89 89 SW 5 7 29.98 1015 5 8 0.00 0.00
9:53 am 09:53 Cloudy with Mist and Fog 45 7.2 41 5 86 86 SW 6 9 29.99 1016 6 10 0.00 0.00
10:53 am 10:53 Cloudy 46 7.8 42 5.6 86 86 W 7 11 30.01 1016 7 11 0.00 0.00
11:53 am 11:53 Cloudy 46 7.8 41 5 82 82 WSW 6 9 30.00 1016 8 13 0.00 0.00
12:53 pm 12:53 Cloudy 47 8.3 41 5 80 80 W 6 9 29.99 1016 9 14 0.00 0.00
1:53 pm 13:53 Cloudy 47 8.3 41 5 80 80 SW 3 6 29.99 1016 8 13 0.00 0.00
2:53 pm 14:53 Cloudy 47 8.3 40 4.4 76 76 WSW 3 6 30.00 1016 8 13 0.00 0.00
3:53 pm 15:53 Cloudy 47 8.3 42 5.6 83 83 S 5 7 30.01 1016 7 11 0.00 0.00
4:53 pm 16:53 Cloudy with Haze 46 7.8 41 5 82 82 Calm 30.02 1017 5 8 0.00 0.00
5:53 pm 17:53 Cloudy with Haze 46 7.8 41 5 82 82 Calm 30.04 1017 6 10 0.00 0.00
6:21 pm 18:21 Cloudy with Mist and Fog 45 7.2 42 5.6 90 90 Calm 30.05 1018 6 10 0.00 0.00
6:53 pm 18:53 Cloudy with Mist and Fog 46 7.8 42 5.6 86 86 Calm 30.04 1017 5 8 0.00 0.00
7:53 pm 19:53 Cloudy with Haze 46 7.8 41 5 82 82 S 6 9 30.05 1018 5 8 0.00 0.00
8:03 pm 20:03 Cloudy with Mist and Fog 46 7.8 42 5.6 86 86 undefined N/A 30.06 1018 4 6 0.00 0.00
8:53 pm 20:53 Cloudy with Mist and Fog 45 7.2 42 5.6 90 90 S 5 7 30.06 1018 4 6 0.00 0.00
9:53 pm 21:53 Cloudy with Mist and Fog 46 7.8 42 5.6 86 86 S 5 7 30.08 1019 4 6 0.00 0.00
10:53 pm 22:53 Cloudy with Mist and Fog 46 7.8 42 5.6 86 86 S 5 7 30.06 1018 4 6 0.00 0.00
11:53 pm 23:53 Cloudy with Mist and Fog 45 7.2 42 5.6 90 90 SSW 5 7 30.06 1018 4 6 0.00 0.00

Powered by AerisWeather